STARLINK-4545 (53421 NORAD) Tracking and Keplerian Element Data

This shows tracking and keplerian element data for the satellite.

Feedback or suggestion? Click here.




ElementValue
Catalog53421
NameSTARLINK-4545
Epoch Orbit1671
Epoch Day324.70706444
Epoch Year2022
RAAN123.4875
Inclination53.2188
Eccentricity0.0001989
Argument of Perigee57.9205
Mean Anonmoly302.198
Mean Motion15.08826227
Decay Rate-4.64E-06
L11 53421U 22097AK 22324.70706444 -.00000464 00000+0 -11055-4 0 9991
L22 53421 53.2188 123.4875 0001989 57.9205 302.1980 15.08826227 16718



Live tracking and technical data element details for STARLINK-4545 (NORAD 53421). STARLINK-4545 can be tracked NOW for your location showing map with azimuth and elevation plus other details from your city location.







IsCatalogInMostPopularTable: catalog: 53421, numindb: 4
Update: records affected: 1



GetName: 53421 STARLINK-4545

Hit Count: updated at: Thu, 08 Dec 2022 20:34:59 GMT